Theta_e
345 343 347 350 348 349 348 352 351 351 352 351 352 352 351 351 352 352 351 351 350 345 348 350 351 347 346 344 349 349 343 342 344 339 340 343 349 350 350 351 343 345 348
342 344 349 348 351 352 352 350 351 352 351 353 352 352 352 351 352 352 352 352 352 352 350 348 349 351 351 349 347 342 336 339 343 344 346 344 344 347 349 352 342 344 349
342 346 349 348 350 351 352 351 350 349 352 351 351 352 352 352 353 352 353 352 352 352 351 350 345 344 346 345 348 341 336 339 343 344 342 341 342 348 345 345 341 345 345
343 348 349 347 351 352 345 350 353 348 351 351 352 352 351 352 352 353 353 353 353 352 351 351 352 349 341 347 346 345 342 341 342 345 346 343 342 345 344 341 340 342 347
345 347 349 347 348 346 349 349 347 351 349 350 348 349 349 350 350 348 346 344 346 347 349 351 352 349 348 339 338 341 341 339 337 342 341 337 346 347 348 345 343 347 349
346 345 347 348 353 352 352 348 348 340 337 343 347 343 340 341 342 343 339 339 341 343 346 347 349 351 351 348 345 336 332 335 337 338 343 345 345 340 344 344 345 346 350
345 347 346 351 352 351 342 338 339 344 342 344 343 342 341 342 342 341 342 344 343 344 346 349 352 351 347 348 345 345 342 335 333 333 345 348 347 342 341 340 345 342 351
344 347 350 346 345 337 341 341 340 339 341 342 343 341 340 340 341 341 342 344 345 345 344 344 345 349 347 346 346 346 344 343 347 347 349 351 348 345 343 339 342 345 341
344 343 342 335 339 340 340 338 339 341 343 344 343 343 343 344 343 342 342 343 341 341 341 341 343 345 345 344 344 344 345 343 346 349 349 350 347 346 345 343 341 340 339
341 337 334 337 340 338 337 339 342 344 344 343 344 345 346 347 349 350 350 349 347 347 346 347 347 347 347 347 347 347 347 345 346 349 351 350 348 348 346 344 343 341 341
343 336 335 337 337 337 338 341 344 346 348 348 351 353 354 354 352 354 354 353 353 349 347 348 347 347 347 348 348 347 347 346 347 349 352 350 349 348 347 345 343 343 343
348 344 347 346 343 340 341 346 349 350 350 352 353 354 352 352 351 350 348 352 347 347 348 348 348 348 347 347 347 346 347 345 346 349 351 350 350 348 346 344 345 346 346
346 347 349 349 348 346 343 347 351 352 352 353 350 347 351 353 353 352 350 350 351 344 348 350 349 348 350 350 348 346 340 347 350 351 351 350 349 347 346 340 333 329 329
347 347 348 349 349 349 348 349 352 352 353 354 356 352 351 353 351 349 348 349 352 351 351 353 354 354 352 351 351 352 352 351 351 352 351 351 349 347 334 326 326 327 329
347 347 348 349 352 351 350 352 351 352 351 352 356 355 354 352 348 343 347 350 351 353 354 354 353 353 354 352 352 354 354 353 351 352 350 350 348 334 328 329 330 331 335
342 345 346 347 351 353 353 352 355 355 354 353 353 354 355 350 344 345 350 352 355 355 353 354 353 353 352 354 353 352 354 354 352 352 351 346 335 331 330 329 329 330 333
345 345 344 344 349 353 353 352 351 351 352 354 353 356 354 352 352 351 354 354 353 356 355 356 351 349 345 345 345 350 354 353 351 353 350 336 334 331 331 330 328 330 329
345 346 345 343 347 352 351 352 354 352 352 354 353 353 355 356 354 355 357 354 353 352 354 353 353 352 348 340 342 343 350 351 349 352 346 334 335 333 331 331 331 330 330
344 345 344 344 348 349 354 356 356 357 354 355 354 354 355 356 352 353 356 356 356 354 352 352 354 352 350 345 342 345 345 349 349 349 340 336 335 333 336 335 333 326 331
344 345 345 346 345 350 354 356 356 356 354 353 355 355 354 353 355 353 354 357 355 352 351 352 352 352 347 347 343 342 343 347 347 345 344 340 339 339 339 340 336 330 335
345 344 346 348 350 351 354 356 353 355 352 356 354 354 352 351 353 354 353 347 359 356 356 349 348 351 350 347 345 342 341 347 350 348 347 345 343 341 339 341 338 333 336
344 343 344 347 351 352 353 356 357 355 357 356 355 351 351 352 353 356 354 357 359 359 357 354 351 348 351 347 344 340 338 340 346 348 347 346 344 344 342 340 339 337 335
344 343 344 350 352 352 353 352 355 354 353 354 354 351 355 353 350 354 356 357 361 357 356 356 353 349 349 352 345 342 339 337 336 340 343 345 345 344 340 339 338 336 334
345 344 344 348 354 353 352 351 354 353 352 354 353 355 351 352 354 354 355 355 359 358 359 359 359 351 351 351 349 346 344 343 339 335 337 341 343 343 341 339 339 336 334
345 345 345 347 351 351 351 351 353 352 355 353 353 358 354 354 355 355 355 355 357 360 360 360 360 359 352 347 351 353 342 338 342 336 337 336 335 335 334 332 331 330 330
346 347 346 347 350 351 350 350 348 350 353 351 348 348 354 356 352 352 355 355 357 358 359 358 359 359 356 349 349 351 339 343 343 338 336 332 332 332 331 331 331 330 330
Wind_Speed
12 13 12 11 12 13 12 13 14 15 14 14 14 13 12 12 13 13 13 13 13 13 12 10 10 10 10 10 11 9 9 8 8 10 12 13 11 9 10 10 11 13 14
20 16 13 14 12 12 12 13 14 16 14 14 13 13 13 13 13 13 13 12 12 11 9 8 8 9 8 8 7 8 8 8 8 9 9 9 10 7 7 9 11 13 14
21 18 16 15 14 14 13 13 12 16 13 13 13 13 12 12 12 12 12 12 11 10 8 8 7 8 8 8 8 9 9 8 7 7 7 8 8 6 9 7 9 10 12
23 21 18 16 15 15 14 13 13 13 11 12 11 11 11 10 10 9 9 9 8 8 8 8 7 6 7 8 8 7 8 8 7 7 7 7 9 9 8 10 9 9 12
24 21 19 17 15 15 14 12 12 12 12 10 9 10 10 9 9 8 8 8 8 7 7 7 6 6 6 6 7 7 7 8 7 7 4 7 7 8 8 9 9 9 11
23 21 19 17 15 14 14 13 12 11 10 9 8 8 8 7 7 7 7 7 6 6 7 8 8 7 7 7 6 7 7 6 6 7 4 2 7 6 8 9 9 9 10
25 22 19 17 16 15 13 12 12 11 10 9 8 6 5 4 4 5 6 6 6 6 7 8 9 9 8 7 7 7 7 7 8 8 8 9 12 10 11 14 13 11 11
28 24 20 17 16 14 13 12 11 9 8 7 6 5 5 4 3 4 5 5 6 6 6 7 8 9 9 8 7 7 8 8 7 8 10 13 14 14 10 10 11 11 12
25 23 19 17 15 14 13 11 10 8 7 5 5 4 3 2 2 2 2 3 4 5 6 6 6 7 8 9 8 8 7 9 10 11 10 12 15 13 12 13 13 13 13
24 21 19 17 15 14 12 10 8 7 6 6 5 3 2 2 3 3 3 3 4 6 7 7 7 8 9 9 9 8 9 10 11 14 14 15 19 17 14 13 15 15 14
21 21 18 17 15 13 11 9 8 7 8 7 4 2 4 5 5 5 4 3 4 7 8 8 9 8 10 10 9 7 8 11 14 16 14 16 21 19 16 14 14 14 15
23 22 18 16 15 13 11 9 7 6 4 5 4 1 2 2 1 3 5 3 4 6 8 10 12 11 12 12 12 12 13 12 13 14 12 17 20 18 15 14 14 15 15
25 22 19 15 13 12 10 7 4 3 5 7 5 3 1 1 2 3 3 7 9 8 12 14 13 15 13 12 11 13 10 18 19 16 17 20 19 16 13 11 11 11 12
26 21 18 13 11 12 10 7 1 6 5 6 7 2 1 3 2 6 5 7 6 8 12 14 14 14 16 17 15 14 15 15 19 19 20 20 16 13 10 8 7 5 6
27 24 20 17 11 13 14 8 6 4 5 6 7 3 5 3 1 9 4 4 7 9 13 14 15 15 15 15 18 20 19 17 20 24 21 18 17 14 11 7 5 4 4
24 26 23 18 14 13 10 10 5 4 4 5 6 4 3 3 4 4 6 8 7 6 6 7 10 11 10 15 19 21 21 20 20 23 21 20 18 14 10 8 7 6 4
30 28 22 19 16 11 8 9 5 5 6 5 8 9 5 5 4 5 3 3 5 2 7 5 6 9 3 2 6 17 20 21 23 27 24 22 17 14 10 9 8 7 7
30 24 17 17 16 11 9 7 2 4 7 7 10 8 10 5 4 7 4 9 8 1 7 5 5 2 4 10 8 3 13 21 23 28 25 22 18 15 11 9 11 9 8
27 21 17 17 18 14 11 6 4 3 4 5 11 12 9 11 6 5 7 7 5 6 4 4 5 3 5 12 6 2 5 19 27 28 24 23 19 16 10 10 11 10 8
27 21 19 19 17 14 10 8 7 6 5 6 10 15 12 9 4 4 5 3 4 5 6 5 4 4 8 15 12 8 4 8 20 21 22 20 18 13 9 13 12 11 10
28 23 22 21 17 14 12 10 5 3 3 6 18 15 10 9 5 4 1 3 2 4 5 8 4 6 7 15 12 15 20 5 13 18 20 16 15 14 10 14 13 11 12
30 26 24 22 21 16 12 7 3 4 3 17 17 15 12 7 6 6 4 3 3 2 0 2 5 6 7 11 7 3 3 6 5 6 13 12 12 11 10 14 13 12 13
33 30 26 23 25 22 17 14 8 6 5 7 10 13 13 11 7 6 3 4 3 2 2 2 4 6 7 6 6 5 3 1 3 4 4 10 13 15 14 16 14 15 13
35 34 30 25 25 24 20 16 13 8 9 3 4 10 15 13 11 9 8 6 5 3 2 3 1 4 4 4 1 3 7 11 3 2 5 3 5 11 12 12 11 9 8
36 36 34 32 29 27 23 20 18 14 12 9 3 2 14 13 13 13 12 11 9 7 4 3 3 2 3 0 1 1 9 7 4 2 2 2 5 6 7 8 9 8 8
31 35 37 36 34 32 28 24 22 20 15 12 10 6 5 9 9 9 13 13 13 10 8 7 7 7 5 4 3 6 8 5 4 5 3 1 5 4 5 7 8 9 11
Wind_Direction
158 152 143 140 129 126 120 112 114 112 115 120 118 116 116 113 109 111 107 107 107 108 116 119 124 132 142 156 154 151 133 129 126 127 124 122 122 121 127 122 132 131 131
149 154 148 143 139 132 128 124 116 117 118 117 118 120 115 116 117 112 110 114 114 119 122 123 125 128 140 146 156 169 164 149 142 137 128 131 126 130 140 151 149 143 137
147 147 144 140 138 135 135 129 122 121 121 122 123 122 119 117 116 116 118 117 119 120 122 123 130 147 157 157 167 174 177 173 154 143 157 156 153 153 138 159 151 150 147
149 149 142 140 138 140 136 128 122 123 130 134 132 132 129 125 122 129 124 123 128 138 144 143 145 146 162 170 182 181 184 185 178 169 186 188 180 166 166 173 175 174 152
149 146 141 141 143 138 136 137 136 135 141 142 149 148 141 144 151 148 145 153 159 160 157 153 163 169 175 179 188 198 200 199 198 195 216 171 174 168 180 178 171 171 164
149 149 148 143 138 140 145 146 146 143 137 147 149 148 149 153 161 168 173 175 178 181 178 175 177 187 186 193 196 204 204 214 219 215 217 207 203 184 196 195 192 181 171
148 149 147 145 147 152 150 146 143 147 151 154 157 151 149 167 191 209 211 207 199 195 200 201 193 193 197 200 208 209 222 211 206 210 227 222 218 204 204 199 194 186 184
147 147 148 152 153 150 146 146 148 153 154 155 150 144 148 159 200 232 233 225 224 218 203 205 208 203 200 203 208 214 217 222 226 226 234 256 233 220 216 214 215 205 196
147 147 147 149 150 150 151 150 154 151 145 134 126 120 124 139 156 176 252 248 231 223 218 218 226 226 216 207 200 206 215 212 218 229 240 247 211 211 213 217 215 216 208
146 144 146 151 154 155 152 154 149 140 129 116 103 112 136 153 183 177 190 246 263 257 248 237 235 232 230 222 213 207 207 215 215 223 226 224 208 210 215 221 216 217 215
148 144 149 156 161 158 156 148 146 140 131 125 118 102 311 286 263 264 264 274 262 260 261 260 247 241 240 236 228 220 209 205 212 225 232 214 209 207 219 223 221 226 228
159 157 154 156 158 158 156 155 138 140 139 118 102 96 288 279 328 323 296 239 238 238 252 239 245 242 238 236 228 217 222 213 216 222 213 215 209 211 217 218 221 226 232
163 166 168 167 168 170 167 182 187 177 127 123 116 129 159 223 195 261 292 258 263 254 247 249 251 243 244 236 229 224 216 223 225 225 217 208 215 218 214 214 225 231 230
170 168 172 176 189 195 186 206 210 221 203 190 182 141 193 59 214 245 261 242 248 254 257 261 259 263 258 251 251 245 240 235 228 228 224 227 222 213 218 216 204 206 211
171 173 173 167 172 183 187 177 169 171 202 220 209 257 70 124 215 329 43 319 288 275 278 265 256 258 263 259 249 247 245 238 233 224 220 218 213 207 209 200 183 166 179
171 176 172 174 173 161 164 177 163 164 220 205 226 217 177 88 16 283 300 323 304 261 266 270 261 259 273 269 260 256 250 237 234 220 220 212 205 210 203 192 189 180 158
168 171 179 185 185 179 186 190 204 236 190 188 223 228 196 116 61 55 24 341 259 290 244 191 124 163 160 12 295 254 246 238 230 219 215 212 205 205 200 203 203 184 162
168 174 182 186 193 189 190 187 212 195 212 216 211 213 212 204 161 98 96 133 90 120 127 111 84 72 29 2 278 288 246 242 230 221 217 207 206 202 201 214 208 182 166
172 174 175 177 181 192 194 208 223 297 230 218 213 218 215 185 128 128 101 112 94 82 102 92 73 19 7 355 347 275 302 221 216 216 214 209 207 200 205 214 208 186 186
175 178 177 178 187 194 208 238 264 295 272 260 211 209 190 187 161 65 135 130 87 77 61 80 48 16 12 357 358 16 356 217 216 220 214 212 213 211 216 209 207 206 193
177 182 186 197 198 196 214 236 268 332 216 208 185 194 180 202 194 166 175 190 152 39 30 34 34 39 9 5 9 65 73 97 209 222 226 222 219 213 209 204 209 193 190
182 187 190 203 207 209 211 219 287 308 2 173 182 184 183 184 221 179 152 183 168 327 200 7 32 47 26 21 19 39 24 54 78 241 232 220 221 214 212 204 216 223 214
186 190 193 199 206 208 213 224 228 258 275 201 206 211 203 202 232 236 239 213 212 140 162 182 35 28 42 34 28 48 42 332 334 29 332 258 242 221 211 216 219 222 223
191 193 194 198 201 211 220 221 228 238 263 208 268 257 213 216 229 244 244 256 242 227 192 175 37 22 26 30 29 27 58 34 323 344 37 64 226 214 212 201 204 219 218
191 196 198 201 208 217 223 225 225 234 245 256 308 263 211 225 242 251 248 241 253 265 258 237 260 278 287 345 28 96 82 49 35 293 241 156 134 162 177 186 187 186 163
194 195 201 205 210 215 218 221 226 227 235 246 248 265 260 261 280 305 294 241 232 254 256 276 259 254 241 215 222 149 132 129 195 216 238 193 173 189 175 189 181 179 185